User: anonymous   Login
Location: Newark
(34.0111°N, 88.4892°W)
Time: 07:49:02
(UTC+00:00)
Language:

PicSat - Orbit

View from above orbital plane
View from above orbital plane
View from above satellite
View from above satellite

Ground track
Ground track

The orbit data is extracted from the following two-line orbital elements,

1 43131U 18004W   20157.70799358 +.00001730 +00000-0 +71598-4 0  9993
2 43131 097.4490 229.7655 0010940 093.0511 267.1979 15.25257697133306
Epoch (UTC): 05 June 2020 16:59:30
Eccentricity: 0.0010940
inclination: 97.4490°
perigee height: 482 km
apogee height: 497 km
right ascension of ascending node: 229.7655°
argument of perigee: 93.0511°
revolutions per day: 15.25257697
mean anomaly at epoch: 267.1979°
orbit number at epoch: 13330

The dashed part of the orbit path shows where the satellite is in the earth's shadow,  

DLR